GW0992 Weather Reports


Display with metric or nautical units.
time (UTC)temp
F
wind
direction
speed
MPH
gust
MPH
rain 1hr
in
rain 24hr
in
rain mn
in
humidity
%
barometer
mb
20260506113030 65 236 5.0 14.0 0.00 0.00 0.00 68 1007.7
20260506111511 65 195 3.0 9.0 0.00 0.00 0.00 69 1007.6
20260506110127 64 298 5.0 12.0 0.00 0.00 0.00 70 1007.3
20260506104529 64 252 3.0 12.0 0.00 0.00 0.00 70 1007.6
20260506103019 64 190 4.0 11.0 0.00 0.00 0.00 70 1007.5
20260506101629 64 205 5.0 12.0 0.00 0.00 0.00 71 1007.3
20260506100053 64 160 3.0 6.0 0.00 0.00 0.00 71 1007.1
20260506094541 64 198 5.0 12.0 0.00 0.00 0.00 71 1007.2
20260506093031 64 188 4.0 9.0 0.00 0.00 0.00 71 1007.2
20260506091529 64 199 3.0 10.0 0.00 0.00 0.00 71 1007.3
20260506090005 64 260 3.0 9.0 0.00 0.00 0.00 70 1007.4
20260506084556 64 198 7.0 12.0 0.00 0.00 0.00 70 1007.5
20260506083032 64 182 4.0 12.0 0.00 0.00 0.00 69 1007.4
20260506081514 64 191 4.0 9.0 0.00 0.00 0.00 68 1007.5
20260506073025 66 182 5.0 10.0 0.00 0.00 0.00 66 1007.4
20260506071517 66 166 4.0 11.0 0.00 0.00 0.00 65 1007.6
20260506070124 66 224 4.0 11.0 0.00 0.00 0.00 64 1007.6
20260506061508 67 303 5.0 13.0 0.00 0.00 0.00 62 1007.6
20260506050128 68 268 4.0 9.0 0.00 0.00 0.00 59 1008.2
20260506044546 68 186 2.0 11.0 0.00 0.00 0.00 58 1008.2
20260506043040 69 247 4.0 10.0 0.00 0.00 0.00 57 1008.2
20260506041513 69 221 4.0 8.0 0.00 0.00 0.00 55 1008.1
20260506040009 69 155 4.0 12.0 0.00 0.00 0.00 54 1008.0
20260506034551 69 290 3.0 10.0 0.00 0.00 0.00 54 1008.1
20260506033041 69 277 5.0 13.0 0.00 0.00 0.00 53 1008.0
20260506031520 70 267 6.0 14.0 0.00 0.00 0.00 53 1007.9
20260506030001 70 148 5.0 17.0 0.00 0.00 0.00 53 1007.9
20260506024554 70 251 7.0 14.0 0.00 0.00 0.00 53 1008.0
20260506023018 70 221 5.0 13.0 0.00 0.00 0.00 53 1008.0
20260506021501 71 133 4.0 11.0 0.00 0.00 0.00 51 1007.9
20260506020120 72 187 5.0 14.0 0.00 0.00 0.00 50 1007.8
20260506014546 72 263 7.0 14.0 0.00 0.00 0.00 49 1007.8
20260506013016 72 218 6.0 18.0 0.00 0.00 0.00 48 1007.4
20260506011505 74 233 3.0 13.0 0.00 0.00 0.00 44 1007.2
20260506010051 77 191 5.0 14.0 0.00 0.00 0.00 39 1007.0
20260506004537 78 209 9.0 16.0 0.00 0.00 0.00 37 1006.7
20260506003017 78 260 9.0 17.0 0.00 0.00 0.00 37 1006.5
20260505234507 80 269 5.0 12.0 0.00 0.00 0.00 31 1006.2
20260505233047 80 228 10.0 18.0 0.00 0.00 0.00 30 1006.1
20260505231546 81 292 10.0 21.0 0.00 0.00 0.00 29 1005.9
20260505230017 81 234 9.0 20.0 0.00 0.00 0.00 28 1005.7
20260505224510 82 277 12.0 20.0 0.00 0.00 0.00 28 1005.6
20260505223048 82 96 9.0 17.0 0.00 0.00 0.00 28 1005.4
20260505221526 82 225 10.0 26.0 0.00 0.00 0.00 28 1005.4
20260505220004 82 248 12.0 24.0 0.00 0.00 0.00 28 1005.2
20260505214606 83 290 11.0 22.0 0.00 0.00 0.00 28 1005.0
20260505213026 83 245 10.0 21.0 0.00 0.00 0.00 29 1004.9
20260505211516 83 153 12.0 24.0 0.00 0.00 0.00 28 1004.8
20260505210124 84 263 13.0 23.0 0.00 0.00 0.00 28 1004.8
20260505204558 84 227 6.0 17.0 0.00 0.00 0.00 29 1004.8
20260505203126 84 248 8.0 30.0 0.00 0.00 0.00 28 1005.0
20260505201528 84 248 7.0 19.0 0.00 0.00 0.00 29 1005.1
20260505200018 84 345 10.0 24.0 0.00 0.00 0.00 29 1005.0
20260505194558 82 284 11.0 22.0 0.00 0.00 0.00 31 1005.4
20260505193049 83 275 11.0 26.0 0.00 0.00 0.00 29 1005.2
20260505191543 83 302 11.0 21.0 0.00 0.00 0.00 32 1005.7
20260505190017 82 240 8.0 17.0 0.00 0.00 0.00 35 1006.0
20260505184551 82 245 11.0 21.0 0.00 0.00 0.00 34 1006.3
20260505183055 82 257 8.0 27.0 0.00 0.00 0.00 35 1006.4
20260505181532 81 163 11.0 18.0 0.00 0.00 0.00 36 1006.3
20260505180019 81 171 11.0 20.0 0.00 0.00 0.00 38 1006.5
20260505174506 80 202 8.0 15.0 0.00 0.00 0.00 39 1006.6
20260505173051 80 198 7.0 21.0 0.00 0.00 0.00 39 1006.9
20260505171531 80 217 7.0 16.0 0.00 0.00 0.00 39 1007.0
20260505170009 79 183 7.0 17.0 0.00 0.00 0.00 40 1007.1
20260505164624 79 232 8.0 15.0 0.00 0.00 0.00 40 1007.2
20260505163031 78 295 5.0 19.0 0.00 0.00 0.00 41 1007.5
20260505161521 77 175 9.0 18.0 0.00 0.00 0.00 42 1007.8
20260505153059 75 279 6.0 14.0 0.00 0.00 0.00 45 1008.5
20260505151531 74 184 6.0 11.0 0.00 0.00 0.00 45 1008.5
20260505130117 66 208 4.0 11.0 0.00 0.00 0.00 55 1008.7
20260505124535 65 257 4.0 13.0 0.00 0.00 0.00 57 1008.6
20260505123008 63 284 2.0 8.0 0.00 0.00 0.00 60 1008.8
20260505121548 62 295 3.0 7.0 0.00 0.00 0.00 63 1008.9
20260505120042 60 227 2.0 6.0 0.00 0.00 0.00 65 1009.0
20260505114523 60 119 1.0 7.0 0.00 0.00 0.00 66 1008.5